Terug naar catalogus

DELTA 1 DEB

LostSSO
NORAD 42089·DEBRIS·🇺🇸 United States

Gelanceerd Dec 15, 1968 vanaf Vandenberg Space Force Base

Loading…

Volgende Passages (komende 24 uur)

TLE

VerouderdSource: Space-Track

Epoch: Feb 20, 2024, 01:24 UTC

1 42089U 68114R   24051.05901893  .00000147  00000-0  15410-2 0  9995
2 42089 102.1649   1.8080 0153703 109.7817 251.9886 12.31162652418604

Volg DELTA 1 DEB in realtime met AllMySat

Download on the App Store